• In Deutschland
  • Länderverzeichnis
  • Für 7 Tage
  • Wassertemperatur
  • Satellitenkarten
  • Wetterkarte
  • Widgets
  • user-avatar
    Anmelden

    Stündliche Wetter Höxter

    Heute, 17 Oktober, Mittwoch

    Zeit Temperatur Niederschläge Wind Luftdruck Luftfeuchtigkeit
    00:00 +14°C° 0 mm 0 m/S 756 mmHg 83%
    01:00 +13°C° 0 mm 0 m/S 756 mmHg 86%
    02:00 +13°C° 0 mm 0 m/S 756 mmHg 86%
    03:00 +13°C° 0 mm 0 m/S 756 mmHg 87%
    04:00 +14°C° 0 mm 1 m/S 756 mmHg 87%
    05:00 +14°C° 0 mm 1 m/S 756 mmHg 88%
    06:00 +14°C° 0 mm 1 m/S 756 mmHg 88%
    07:00 +13°C° 0 mm 1 m/S 756 mmHg 86%
    08:00 +15°C° 0 mm 1 m/S 756 mmHg 80%
    09:00 +18°C° 0 mm 1 m/S 756 mmHg 74%
    10:00 +20°C° 0 mm 1 m/S 756 mmHg 68%
    11:00 +22°C° 0 mm 1 m/S 756 mmHg 64%
    12:00 +21°C° 0 mm 0 m/S 755 mmHg 60%
    13:00 +22°C° 0 mm 0 m/S 755 mmHg 56%
    14:00 +22°C° 0 mm 0 m/S 755 mmHg 58%
    15:00 +23°C° 0 mm 1 m/S 755 mmHg 61%
    16:00 +23°C° 0 mm 1 m/S 755 mmHg 63%
    17:00 +21°C° 0 mm 1 m/S 755 mmHg 69%
    18:00 +19°C° 0 mm 1 m/S 755 mmHg 74%
    19:00 +16°C° 0 mm 1 m/S 755 mmHg 80%
    20:00 +15°C° 0 mm 0 m/S 756 mmHg 82%
    21:00 +14°C° 0 mm 0 m/S 756 mmHg 84%
    22:00 +14°C° 0 mm 0 m/S 756 mmHg 86%
    23:00 +14°C° 0 mm 0 m/S 756 mmHg 87%

    Morgen, 18 Oktober, Donnerstag

    Zeit Temperatur Niederschläge Wind Luftdruck Luftfeuchtigkeit
    00:00 +14°C° 0 mm 1 m/S 756 mmHg 88%
    01:00 +14°C° 0 mm 1 m/S 756 mmHg 90%
    02:00 +13°C° 0 mm 1 m/S 756 mmHg 92%
    03:00 +13°C° 0 mm 1 m/S 756 mmHg 93%
    04:00 +13°C° 0 mm 1 m/S 756 mmHg 95%
    05:00 +12°C° 0 mm 1 m/S 757 mmHg 96%
    06:00 +12°C° 0 mm 1 m/S 757 mmHg 96%
    07:00 +12°C° 0 mm 1 m/S 757 mmHg 97%
    08:00 +13°C° 0 mm 1 m/S 757 mmHg 94%
    09:00 +14°C° 0 mm 2 m/S 757 mmHg 92%
    10:00 +15°C° 0 mm 2 m/S 758 mmHg 89%
    11:00 +15°C° 0 mm 2 m/S 758 mmHg 86%
    12:00 +16°C° 0 mm 2 m/S 758 mmHg 83%
    13:00 +16°C° 0 mm 2 m/S 758 mmHg 80%
    14:00 +16°C° 0 mm 2 m/S 758 mmHg 80%
    15:00 +16°C° 0 mm 2 m/S 758 mmHg 81%
    16:00 +16°C° 0 mm 3 m/S 758 mmHg 81%
    17:00 +15°C° 0 mm 2 m/S 758 mmHg 83%
    18:00 +14°C° 0 mm 2 m/S 758 mmHg 85%
    19:00 +14°C° 0 mm 2 m/S 759 mmHg 87%
    20:00 +14°C° 0 mm 2 m/S 759 mmHg 87%
    21:00 +13°C° 0 mm 2 m/S 759 mmHg 87%
    22:00 +13°C° 0 mm 2 m/S 760 mmHg 87%
    23:00 +12°C° 0 mm 2 m/S 760 mmHg 89%

    übermorgen, 19 Oktober, Freitag

    Zeit Temperatur Niederschläge Wind Luftdruck Luftfeuchtigkeit
    00:00 +10°C° 0 mm 2 m/S 760 mmHg 91%
    01:00 +10°C° 0 mm 2 m/S 760 mmHg 92%
    02:00 +9°C° 0 mm 2 m/S 760 mmHg 91%
    03:00 +9°C° 0 mm 2 m/S 760 mmHg 91%
    04:00 +10°C° 0 mm 1 m/S 760 mmHg 90%
    05:00 +10°C° 0 mm 1 m/S 760 mmHg 90%
    06:00 +9°C° 0 mm 1 m/S 760 mmHg 90%
    07:00 +9°C° 0 mm 1 m/S 760 mmHg 90%
    08:00 +10°C° 0 mm 1 m/S 760 mmHg 85%
    09:00 +12°C° 0 mm 1 m/S 760 mmHg 80%
    10:00 +13°C° 0 mm 2 m/S 761 mmHg 75%
    11:00 +14°C° 0 mm 2 m/S 761 mmHg 71%
    12:00 +15°C° 0 mm 2 m/S 760 mmHg 68%
    13:00 +16°C° 0 mm 2 m/S 760 mmHg 64%
    14:00 +16°C° 0 mm 1 m/S 760 mmHg 65%
    15:00 +16°C° 0 mm 1 m/S 760 mmHg 66%
    16:00 +16°C° 0 mm 1 m/S 760 mmHg 67%
    17:00 +14°C° 0 mm 1 m/S 760 mmHg 71%
    18:00 +12°C° 0 mm 1 m/S 761 mmHg 76%
    19:00 +11°C° 0 mm 1 m/S 761 mmHg 80%
    20:00 +10°C° 0 mm 1 m/S 761 mmHg 81%
    21:00 +10°C° 0 mm 1 m/S 762 mmHg 82%
    22:00 +9°C° 0 mm 1 m/S 762 mmHg 82%
    23:00 +9°C° 0 mm 1 m/S 762 mmHg 83%

    20 Oktober, Samstag

    Zeit Temperatur Niederschläge Wind Luftdruck Luftfeuchtigkeit
    00:00 +8°C° 0 mm 1 m/S 762 mmHg 84%
    01:00 +7°C° 0 mm 0 m/S 762 mmHg 85%
    02:00 +7°C° 0 mm 0 m/S 762 mmHg 86%
    03:00 +7°C° 0 mm 0 m/S 762 mmHg 86%
    04:00 +6°C° 0 mm 0 m/S 763 mmHg 87%
    05:00 +6°C° 0 mm 0 m/S 763 mmHg 87%
    06:00 +6°C° 0 mm 0 m/S 763 mmHg 87%
    07:00 +7°C° 0 mm 1 m/S 764 mmHg 88%
    08:00 +9°C° 0 mm 1 m/S 764 mmHg 81%
    09:00 +11°C° 0 mm 1 m/S 764 mmHg 74%
    10:00 +12°C° 0 mm 1 m/S 765 mmHg 67%
    11:00 +13°C° 0 mm 1 m/S 765 mmHg 63%
    12:00 +14°C° 0 mm 1 m/S 765 mmHg 59%
    13:00 +15°C° 0 mm 1 m/S 765 mmHg 55%
    14:00 +15°C° 0 mm 1 m/S 765 mmHg 57%
    15:00 +15°C° 0 mm 1 m/S 765 mmHg 59%
    16:00 +15°C° 0 mm 1 m/S 764 mmHg 61%
    17:00 +13°C° 0 mm 1 m/S 765 mmHg 66%
    18:00 +11°C° 0 mm 1 m/S 765 mmHg 71%
    19:00 +9°C° 0 mm 1 m/S 765 mmHg 77%
    20:00 +8°C° 0 mm 1 m/S 765 mmHg 78%
    21:00 +8°C° 0 mm 1 m/S 765 mmHg 79%
    22:00 +7°C° 0 mm 1 m/S 766 mmHg 80%
    23:00 +7°C° 0 mm 1 m/S 766 mmHg 81%

    21 Oktober, Sonntag

    Zeit Temperatur Niederschläge Wind Luftdruck Luftfeuchtigkeit
    00:00 +7°C° 0 mm 1 m/S 765 mmHg 81%
    01:00 +7°C° 0 mm 1 m/S 765 mmHg 82%
    02:00 +7°C° 0 mm 1 m/S 765 mmHg 82%
    03:00 +6°C° 0 mm 1 m/S 765 mmHg 83%
    04:00 +6°C° 0 mm 1 m/S 765 mmHg 83%
    05:00 +6°C° 0 mm 1 m/S 765 mmHg 83%
    06:00 +6°C° 0 mm 1 m/S 765 mmHg 83%
    07:00 +6°C° 0 mm 1 m/S 765 mmHg 83%
    08:00 +8°C° 0 mm 1 m/S 765 mmHg 75%
    09:00 +10°C° 0 mm 1 m/S 765 mmHg 67%
    10:00 +12°C° 0 mm 1 m/S 764 mmHg 59%
    11:00 +14°C° 0 mm 1 m/S 764 mmHg 54%
    12:00 +15°C° 0 mm 1 m/S 764 mmHg 48%
    13:00 +18°C° 0 mm 1 m/S 763 mmHg 43%
    14:00 +18°C° 0 mm 1 m/S 763 mmHg 47%
    15:00 +16°C° 0 mm 1 m/S 762 mmHg 50%
    16:00 +15°C° 0 mm 0 m/S 762 mmHg 54%
    17:00 +13°C° 0 mm 0 m/S 762 mmHg 58%
    18:00 +12°C° 0 mm 1 m/S 762 mmHg 61%
    19:00 +10°C° 0 mm 1 m/S 762 mmHg 65%
    20:00 +10°C° 0 mm 1 m/S 762 mmHg 67%
    21:00 +9°C° 0 mm 1 m/S 762 mmHg 68%
    22:00 +9°C° 0 mm 1 m/S 762 mmHg 69%
    23:00 +9°C° 0 mm 1 m/S 762 mmHg 71%

    22 Oktober, Montag

    Zeit Temperatur Niederschläge Wind Luftdruck Luftfeuchtigkeit
    00:00 +8°C° 0 mm 1 m/S 762 mmHg 73%
    01:00 +8°C° 0 mm 1 m/S 762 mmHg 74%
    02:00 +7°C° 0 mm 1 m/S 762 mmHg 76%
    03:00 +7°C° 0 mm 1 m/S 762 mmHg 78%
    04:00 +7°C° 0 mm 1 m/S 762 mmHg 80%
    05:00 +7°C° 0 mm 1 m/S 763 mmHg 81%
    06:00 +7°C° 0 mm 1 m/S 763 mmHg 83%
    07:00 +7°C° 0 mm 1 m/S 763 mmHg 84%
    08:00 +7°C° 0 mm 2 m/S 764 mmHg 84%
    09:00 +9°C° 0 mm 3 m/S 764 mmHg 84%
    10:00 +10°C° 0 mm 3 m/S 764 mmHg 85%
    11:00 +11°C° 0 mm 4 m/S 765 mmHg 80%
    12:00 +12°C° 0 mm 4 m/S 765 mmHg 75%
    13:00 +13°C° 0 mm 4 m/S 765 mmHg 70%
    14:00 +12°C° 0 mm 4 m/S 765 mmHg 70%
    15:00 +12°C° 0 mm 4 m/S 765 mmHg 69%
    16:00 +12°C° 0 mm 3 m/S 765 mmHg 68%
    17:00 +10°C° 0 mm 3 m/S 765 mmHg 73%
    18:00 +8°C° 0 mm 3 m/S 766 mmHg 79%
    19:00 +7°C° 0 mm 2 m/S 766 mmHg 84%
    20:00 +6°C° 0 mm 2 m/S 766 mmHg 86%
    21:00 +5°C° 0 mm 2 m/S 766 mmHg 88%
    22:00 +6°C° 0 mm 1 m/S 766 mmHg 90%
    23:00 +6°C° 0 mm 1 m/S 766 mmHg 91%
    Mehr zeigen